Date,TemperatureHighF,TemperatureAvgF,TemperatureLowF,DewpointHighF,DewpointAvgF,DewpointLowF,HumidityHigh,HumidityAvg,HumidityLow,PressureMaxIn,PressureMinIn,WindSpeedMaxMPH,WindSpeedAvgMPH,GustSpeedMaxMPH,PrecipitationSumIn
2013-1-1,48,36,24,27,20,14,89,57,27,30.36,30.25,18,2,19,0.00
2013-1-2,53,37,27,18,15,12,63,44,21,30.32,30.17,13,1,16,0.00
2013-1-3,55,37,24,20,15,8,76,45,15,30.35,30.21,19,2,19,0.00
2013-1-4,54,36,22,16,13,6,75,43,15,30.40,30.26,7,0,7,0.00
2013-1-5,54,38,24,20,14,6,69,41,15,30.41,30.19,6,0,10,0.00
2013-1-6,49,44,40,37,33,16,83,67,29,30.19,30.00,21,6,25,0.00
2013-1-7,57,43,31,35,27,17,92,59,22,30.18,30.05,9,1,12,0.01
2013-1-8,64,46,30,31,27,22,73,52,26,30.26,30.12,8,1,10,0.00
2013-1-9,64,50,34,38,32,28,83,53,31,30.24,29.89,15,1,18,0.00
2013-1-10,49,40,34,41,28,20,85,63,42,30.08,29.86,39,12,39,0.00
2013-1-11,41,36,34,24,22,17,63,55,46,30.19,30.05,27,8,31,0.00
2013-1-12,44,34,23,23,16,9,83,52,25,30.21,30.08,11,1,15,0.00
2013-1-13,46,31,19,19,14,9,79,53,25,30.26,30.09,21,2,25,0.00
2013-1-14,39,28,17,9,2,-4,61,36,16,30.48,30.26,14,2,16,0.00
2013-1-15,49,34,21,14,8,0,54,35,21,30.61,30.46,15,2,17,0.00
2013-1-16,57,40,28,22,16,9,57,39,24,30.54,30.35,14,2,16,0.00
2013-1-17,63,43,30,20,14,7,61,35,11,30.38,30.25,15,2,19,0.00
2013-1-18,62,43,27,16,13,10,58,34,13,30.34,30.20,13,1,14,0.00
2013-1-19,64,43,27,16,12,6,54,33,11,30.38,30.23,11,1,13,0.00
2013-1-20,64,43,27,15,11,6,56,31,11,30.32,30.16,10,1,11,0.00
2013-1-21,67,45,27,14,9,0,53,28,7,30.28,30.15,14,1,16,0.00
2013-1-22,64,45,28,16,11,6,47,29,10,30.26,30.13,6,0,6,0.01
2013-1-23,64,52,40,34,17,11,46,28,13,30.19,30.07,6,0,6,0.00
2013-1-24,55,51,47,49,46,34,93,84,47,30.20,30.08,7,0,8,0.21
2013-1-25,52,50,48,50,48,46,96,92,87,30.20,30.00,5,0,6,0.19
2013-1-26,62,54,50,54,48,45,97,83,58,30.00,29.84,28,4,28,0.07
2013-1-27,52,45,40,48,34,27,88,68,49,30.02,29.89,31,11,32,0.01
2013-1-28,47,41,37,28,27,25,67,57,43,30.20,30.01,32,9,32,0.00
2013-1-29,60,46,38,33,30,28,78,54,31,30.26,30.09,26,6,28,0.00
2013-1-30,64,47,33,36,32,29,92,60,30,30.39,30.25,7,0,8,0.00
2013-1-31,66,49,33,35,32,29,87,58,28,30.32,30.16,10,1,13,0.00
2013-2-1,66,50,34,36,33,30,86,56,29,30.25,30.15,6,0,7,0.00
2013-2-2,64,54,44,45,36,32,73,53,31,30.29,30.17,7,0,10,0.02
2013-2-3,65,53,43,45,42,38,89,68,37,30.18,30.05,8,0,8,0.00
2013-2-4,69,58,46,34,29,24,54,35,19,30.12,29.98,8,1,12,0.00
2013-2-5,70,54,37,42,32,26,75,48,21,30.03,29.88,23,4,24,0.00
2013-2-6,66,52,39,41,24,5,73,39,10,30.05,29.94,19,3,22,0.00
2013-2-7,63,45,32,41,21,9,54,39,26,30.08,29.93,26,3,29,0.00
2013-2-8,38,37,36,35,31,29,90,80,71,29.90,29.82,19,8,22,0.04
2013-2-9,52,43,37,32,28,22,72,58,36,30.04,29.90,21,7,23,0.00
2013-2-10,54,44,36,36,29,20,76,59,28,30.05,29.95,17,4,20,0.00
2013-2-11,53,40,27,30,17,5,85,46,15,30.28,30.05,31,3,33,0.00
2013-2-12,58,41,25,20,14,8,60,36,15,30.40,30.28,7,1,10,0.00
2013-2-13,64,46,31,27,21,15,73,43,16,30.34,30.17,7,1,10,0.00
2013-2-14,68,49,32,26,23,19,70,40,17,30.28,30.14,21,2,22,0.00
2013-2-15,68,51,34,28,21,13,67,35,12,30.33,30.23,25,4,26,0.00
2013-2-16,69,50,35,25,19,15,56,32,13,30.31,30.00,8,0,10,0.00
2013-2-17,67,53,37,36,23,18,49,33,15,30.00,29.86,24,5,25,0.00
2013-2-18,66,50,37,38,31,25,74,50,26,29.99,29.83,22,5,27,0.00
2013-2-19,50,43,36,40,36,30,89,74,56,29.87,29.64,34,9,34,0.15
2013-2-20,47,40,34,30,27,23,82,60,41,29.99,29.65,32,13,36,0.00
2013-2-21,54,45,34,31,25,16,72,49,23,30.11,29.96,22,5,26,0.00
2013-2-22,62,45,28,30,24,18,78,48,19,30.23,30.10,16,2,22,0.00
2013-2-23,61,50,38,36,30,22,70,45,29,30.15,29.86,39,10,39,0.00
2013-2-24,55,44,32,31,8,1,68,25,11,30.25,30.07,29,6,32,0.00
2013-2-25,66,48,28,23,14,4,51,27,13,30.26,30.04,24,4,28,0.00
2013-2-26,63,50,34,29,17,8,67,32,12,30.19,30.03,18,4,19,0.00
2013-2-27,62,47,32,17,11,8,42,26,12,30.36,30.19,15,2,17,0.00
2013-2-28,68,49,31,21,13,4,57,29,8,30.43,30.32,11,1,12,0.00
2013-3-1,74,55,34,26,21,16,62,30,12,30.42,30.23,18,2,19,0.00
2013-3-2,77,59,39,28,23,19,56,28,12,30.29,30.04,23,3,23,0.00
2013-3-3,70,62,54,40,30,18,58,33,17,30.06,29.85,24,6,29,0.00
2013-3-4,71,59,47,44,38,30,70,48,22,30.01,29.90,19,4,23,0.00
2013-3-5,67,54,44,44,41,34,84,62,30,30.00,29.88,23,5,29,0.00
2013-3-6,55,48,44,43,40,36,84,72,59,30.02,29.91,34,10,34,0.00
2013-3-7,54,48,42,41,38,33,82,69,51,29.94,29.79,21,4,23,0.00
2013-3-8,50,43,37,38,36,34,93,76,59,29.98,29.74,22,6,29,0.35
2013-3-9,57,47,38,36,33,30,73,60,40,30.23,29.97,26,7,28,0.00
2013-3-10,68,50,31,33,24,13,85,45,13,30.36,30.20,14,2,17,0.00
2013-3-11,74,54,34,34,26,15,71,39,11,30.23,30.03,8,1,9,0.00
2013-3-12,79,59,38,33,27,19,70,35,11,30.14,30.01,7,1,13,0.00
2013-3-13,84,62,42,33,28,22,58,32,11,30.18,30.02,12,1,12,0.00
2013-3-14,88,67,45,36,31,26,59,30,11,30.12,29.95,12,1,18,0.00
2013-3-15,86,69,55,42,33,9,48,30,7,29.98,29.81,24,4,29,0.00
2013-3-16,77,68,60,41,32,26,45,28,17,29.88,29.77,30,9,34,0.00
2013-3-17,79,62,56,44,31,15,56,33,9,29.92,29.82,27,10,31,0.00
2013-3-18,78,64,45,38,25,10,48,25,11,29.97,29.86,23,5,23,0.00
2013-3-19,77,66,57,39,30,21,37,27,18,30.01,29.91,24,8,24,0.00
2013-3-20,72,63,52,42,37,24,61,39,18,29.99,29.89,28,8,28,0.00
2013-3-21,75,61,52,44,35,14,72,43,10,29.90,29.72,29,10,29,0.00
2013-3-22,73,57,48,40,30,20,61,37,17,29.92,29.74,38,8,38,0.00
2013-3-23,73,58,40,31,11,-26,45,21,2,30.03,29.87,24,4,24,0.00
2013-3-24,76,61,43,26,14,-16,34,18,4,30.02,29.84,18,2,18,0.00
2013-3-25,77,61,44,35,28,21,53,30,13,29.92,29.80,17,4,17,0.00
2013-3-26,76,65,56,44,33,24,51,32,18,29.86,29.77,16,4,16,0.00
2013-3-27,71,63,57,47,41,36,63,45,32,29.92,29.78,20,6,20,0.00
2013-3-28,75,62,49,45,41,34,80,49,23,29.98,29.90,19,3,19,0.00
2013-3-29,80,64,46,44,40,34,80,46,21,30.03,29.94,19,3,21,0.00
2013-3-30,76,65,53,42,36,22,57,36,15,30.01,29.88,22,5,22,0.00
2013-3-31,63,57,51,50,45,30,82,66,37,30.01,29.90,20,6,21,0.00
2013-4-1,65,56,48,46,43,40,80,63,41,30.08,29.97,22,6,22,0.00
2013-4-2,77,62,51,43,38,32,66,45,21,30.04,29.91,20,5,20,0.00
2013-4-3,82,64,44,39,35,30,71,38,17,30.05,29.92,20,2,20,0.00
2013-4-4,76,67,60,48,38,22,59,36,17,29.97,29.87,19,5,19,0.00
2013-4-5,71,61,55,48,43,33,73,52,31,29.97,29.89,30,9,30,0.00
2013-4-6,74,62,54,44,39,33,66,46,24,30.01,29.89,31,11,31,0.00
2013-4-7,75,62,54,44,38,25,69,44,20,29.91,29.72,30,12,30,0.00
2013-4-8,59,51,46,43,35,26,72,53,40,29.81,29.58,37,14,37,0.00
2013-4-9,70,56,45,33,24,14,54,32,12,30.03,29.80,24,6,24,0.00
2013-4-10,77,60,40,32,23,12,56,28,9,30.14,29.94,20,4,20,0.00
2013-4-11,79,69,63,43,38,31,48,33,20,29.94,29.63,21,7,21,0.00
2013-4-12,84,68,51,44,39,28,66,40,13,29.79,29.66,14,2,14,0.00
2013-4-13,77,67,60,46,42,38,57,40,26,29.76,29.62,19,5,19,0.00
2013-4-14,74,62,53,47,43,37,73,52,27,29.69,29.62,34,8,34,0.00
2013-4-15,60,54,49,46,43,41,83,67,55,29.76,29.66,24,8,24,0.00
2013-4-16,56,48,40,41,27,20,77,45,26,29.99,29.76,30,9,30,0.00
2013-4-17,65,53,44,26,21,13,48,30,14,30.16,29.99,19,4,19,0.00
2013-4-18,68,53,37,24,15,3,57,27,8,30.28,30.15,20,3,20,0.00
2013-4-19,80,62,40,31,21,9,56,26,8,30.21,29.96,26,4,26,0.00
2013-4-20,84,71,55,37,30,18,46,24,9,29.98,29.82,22,4,22,0.00
2013-4-21,88,70,49,37,32,18,52,28,8,29.93,29.82,15,2,15,0.00
2013-4-22,87,74,66,46,34,17,41,24,13,29.87,29.68,26,4,26,0.00
2013-4-23,80,70,56,42,29,16,53,25,10,29.88,29.69,22,4,22,0.00
2013-4-24,82,67,52,50,40,24,72,42,12,29.82,29.67,30,6,33,0.00
2013-4-25,74,62,51,48,43,36,79,51,33,29.97,29.76,29,7,29,0.00
2013-4-26,86,71,57,46,39,20,60,34,9,30.06,29.95,14,2,19,0.00
2013-4-27,91,74,53,41,32,14,55,26,6,30.07,29.90,18,2,19,0.00
2013-4-28,95,80,61,47,34,13,47,20,5,29.91,29.71,19,3,24,0.00
2013-4-29,93,78,59,47,32,17,42,21,8,29.74,29.59,19,3,23,0.00
2013-4-30,83,72,63,50,42,35,53,35,19,29.68,29.58,22,7,24,0.00
2013-5-1,82,70,52,44,16,-12,65,22,3,30.06,29.68,25,5,27,0.00
2013-5-2,79,65,46,21,4,-17,31,11,2,30.22,30.05,28,5,29,0.00
2013-5-3,88,69,45,27,12,1,39,14,4,30.07,29.74,18,1,18,0.00
2013-5-4,81,72,56,44,32,19,64,25,12,29.74,29.51,31,6,37,0.00
2013-5-5,64,56,51,47,44,41,79,65,50,29.84,29.58,26,4,26,0.00
2013-5-6,63,55,51,51,46,42,91,73,55,29.91,29.80,25,4,28,0.13
2013-5-7,66,56,49,46,44,41,80,63,44,29.96,29.90,18,4,21,0.00
2013-5-8,72,60,51,48,45,42,77,59,40,30.00,29.93,21,4,23,0.00
2013-5-9,77,65,52,49,46,42,79,52,31,30.00,29.90,22,2,22,0.00
2013-5-10,87,73,57,51,45,38,71,40,19,30.03,29.91,21,3,22,0.00
2013-5-11,93,79,58,49,42,31,62,30,12,30.01,29.89,16,2,17,0.00
2013-5-12,96,84,64,54,42,32,50,25,11,29.98,29.82,16,2,18,0.00
2013-5-13,97,84,65,50,39,30,48,22,11,29.89,29.77,20,2,23,0.00
2013-5-14,87,78,72,42,32,10,32,20,6,29.83,29.72,20,3,23,0.00
2013-5-15,87,76,69,50,44,36,45,33,18,29.83,29.75,21,5,24,0.00
2013-5-16,79,70,60,52,44,34,60,40,27,29.79,29.73,20,4,25,0.00
2013-5-17,76,65,58,52,45,38,65,50,29,29.86,29.77,24,7,28,0.00
2013-5-18,83,70,58,43,30,20,49,25,13,29.93,29.85,30,6,31,0.00
2013-5-19,86,72,62,40,32,24,41,24,11,29.90,29.79,27,8,27,0.00
2013-5-20,86,74,54,45,34,22,57,27,10,29.95,29.80,17,2,20,0.00
2013-5-21,87,75,59,51,40,30,47,30,15,29.84,29.66,18,2,23,0.00
2013-5-22,77,67,56,52,38,23,52,34,22,29.71,29.62,21,6,25,0.00
2013-5-23,72,61,50,48,36,17,61,39,22,29.85,29.71,20,3,20,0.00
2013-5-24,76,63,45,47,35,25,60,38,18,29.87,29.78,21,3,31,0.00
2013-5-25,74,65,58,47,41,31,56,42,30,29.87,29.82,21,4,26,0.00
2013-5-26,77,67,59,50,42,36,54,43,25,29.91,29.85,22,5,24,0.00
2013-5-27,82,69,60,44,38,31,54,34,17,29.89,29.76,34,9,34,0.00
2013-5-28,73,66,59,50,46,39,66,48,32,29.79,29.63,52,11,52,0.00
2013-5-29,79,70,61,50,45,38,63,42,25,29.78,29.62,38,11,45,0.00
2013-5-30,90,76,60,47,27,-3,47,21,4,29.77,29.68,37,7,39,0.00
2013-5-31,96,80,66,49,33,24,50,20,8,29.80,29.68,20,3,26,0.00
2013-6-1,99,81,60,49,39,24,57,28,7,29.79,29.63,13,2,16,0.00
2013-6-2,92,79,66,49,42,36,47,27,16,29.65,29.50,22,4,28,0.00
2013-6-3,89,78,67,50,42,33,37,28,20,29.68,29.56,25,4,26,0.00
2013-6-4,88,77,67,46,39,26,44,27,15,29.76,29.65,23,4,29,0.00
2013-6-5,97,81,68,50,44,33,40,27,16,29.79,29.68,23,3,24,0.00
2013-6-6,100,83,65,53,48,39,59,33,14,29.73,29.62,23,2,23,0.00
2013-6-7,105,86,64,53,45,31,56,28,8,29.69,29.56,16,2,20,0.00
2013-6-8,107,88,70,54,43,26,48,23,9,29.65,29.54,30,4,30,0.00
2013-6-9,92,83,70,47,38,27,38,21,13,29.69,29.62,21,3,22,0.00
2013-6-10,80,72,60,49,43,32,62,37,24,29.80,29.66,27,3,27,0.00
2013-6-11,97,80,62,47,39,26,51,26,9,29.82,29.72,22,3,23,0.00
2013-6-12,90,80,67,50,40,28,43,25,14,29.80,29.73,27,3,27,0.00
2013-6-13,90,78,67,48,37,16,44,24,12,29.84,29.75,21,3,25,0.00
2013-6-14,94,76,57,45,32,14,52,21,10,29.79,29.65,17,2,21,0.00
2013-6-15,87,76,66,41,32,19,34,21,13,29.81,29.70,18,4,26,0.00
2013-6-16,91,79,62,42,30,13,47,19,7,29.86,29.80,26,6,26,0.00
2013-6-17,92,80,70,39,33,24,30,20,11,29.84,29.75,29,8,34,0.00
2013-6-18,89,77,67,50,41,32,51,29,16,29.78,29.67,19,4,26,0.00
2013-6-19,84,70,59,44,28,10,46,25,6,29.79,29.70,28,9,28,0.00
2013-6-20,90,74,63,38,27,13,39,19,6,29.77,29.69,30,7,30,0.00
2013-6-21,90,77,59,48,36,25,48,24,12,29.76,29.69,21,3,25,0.00
2013-6-22,95,80,69,52,39,27,41,25,10,29.75,29.64,17,3,22,0.00
2013-6-23,81,74,68,54,46,39,56,38,28,29.68,29.62,19,4,20,0.00
2013-6-24,72,67,60,56,53,48,68,60,52,29.81,29.65,21,5,25,0.00
2013-6-25,90,78,65,56,53,50,62,43,28,29.85,29.77,25,5,29,0.00
2013-6-26,97,84,65,60,55,49,79,40,21,29.84,29.77,18,2,20,0.00
2013-6-27,100,86,71,57,53,48,55,34,19,29.88,29.81,19,3,23,0.00
2013-6-28,106,89,72,58,52,42,59,31,16,29.86,29.71,21,2,24,0.00
2013-6-29,109,93,72,58,50,39,52,25,10,29.76,29.61,16,2,21,0.00
2013-6-30,112,94,73,55,47,36,48,22,8,29.67,29.55,20,1,24,0.00
2013-7-1,102,89,79,56,49,41,42,27,17,29.72,29.59,30,4,30,0.00
2013-7-2,101,90,80,53,48,42,38,24,14,29.79,29.70,24,4,27,0.00
2013-7-3,104,91,81,56,50,47,42,26,16,29.73,29.57,17,2,21,0.00
2013-7-4,101,89,76,58,52,48,49,29,20,29.62,29.51,22,4,35,0.00
2013-7-5,96,86,80,56,51,46,34,30,24,29.61,29.54,19,5,26,0.00
2013-7-6,96,85,78,57,48,43,39,29,17,29.62,29.55,18,4,24,0.00
2013-7-7,99,87,72,53,42,32,41,22,11,29.70,29.60,19,2,22,0.00
2013-7-8,101,86,68,49,38,26,52,21,7,29.83,29.70,14,1,21,0.00
2013-7-9,103,88,68,50,39,29,46,20,8,29.87,29.78,17,2,19,0.00
2013-7-10,98,85,74,53,45,37,40,26,13,29.82,29.71,14,2,16,0.00
2013-7-11,88,80,74,58,50,39,54,36,20,29.80,29.69,21,3,21,0.02
2013-7-12,94,82,72,55,49,39,53,34,16,29.79,29.70,18,3,22,0.00
2013-7-13,99,86,66,52,44,38,59,25,14,29.81,29.71,18,2,18,0.00
2013-7-14,99,87,68,50,38,32,47,20,10,29.79,29.67,24,4,28,0.00
2013-7-15,94,83,71,45,37,31,40,20,13,29.71,29.65,27,3,27,0.00
2013-7-16,92,79,64,37,27,10,31,16,6,29.84,29.69,18,3,24,0.00
2013-7-17,97,84,66,43,30,8,44,16,6,29.89,29.80,15,2,17,0.00
2013-7-18,101,82,61,46,35,25,56,21,7,29.87,29.70,18,1,18,0.00
2013-7-19,104,84,65,50,41,33,52,24,9,29.77,29.62,22,2,23,0.00
2013-7-20,98,86,71,60,50,38,45,31,14,29.68,29.58,22,3,24,0.00
2013-7-21,90,82,70,63,58,52,77,44,36,29.80,29.61,21,2,21,0.28
2013-7-22,91,79,67,69,62,45,95,60,27,29.84,29.74,23,2,23,0.08
2013-7-23,94,82,68,64,57,44,73,44,31,29.86,29.75,18,2,20,0.00
2013-7-24,98,86,70,61,54,49,65,37,23,29.81,29.71,17,2,18,0.00
2013-7-25,99,88,74,57,50,47,51,28,19,29.83,29.72,18,2,21,0.00
2013-7-26,93,85,77,61,54,48,49,34,28,29.90,29.80,15,1,19,0.00
2013-7-27,98,86,75,60,55,50,58,36,26,29.85,29.67,20,2,20,0.00
2013-7-28,92,83,76,54,43,16,43,26,10,29.71,29.62,23,5,30,0.00
2013-7-29,90,82,74,42,31,16,27,17,10,29.86,29.70,18,4,20,0.00
2013-7-30,93,81,68,48,39,22,38,23,14,29.92,29.82,24,3,24,0.00
2013-7-31,94,78,61,52,45,20,71,34,12,29.92,29.80,20,2,24,0.00
2013-8-1,93,79,62,52,41,30,61,28,12,29.84,29.74,23,4,24,0.00
2013-8-2,91,79,62,47,38,27,52,23,12,29.79,29.72,18,3,23,0.00
2013-8-3,93,80,71,48,36,24,32,21,11,29.82,29.74,23,3,23,0.00
2013-8-4,95,80,61,43,30,8,49,18,5,29.83,29.74,22,3,26,0.00
2013-8-5,94,82,69,42,26,-8,32,15,2,29.83,29.73,20,3,27,0.00
2013-8-6,91,80,68,44,23,-17,30,14,3,29.86,29.77,22,5,27,0.00
2013-8-7,88,77,62,48,37,25,50,26,11,29.89,29.82,16,4,21,0.00
2013-8-8,88,76,66,49,40,24,47,30,10,29.85,29.75,22,3,22,0.00
2013-8-9,88,76,67,46,33,16,44,23,8,29.82,29.75,18,3,23,0.00
2013-8-10,89,78,63,50,43,28,53,31,19,29.86,29.79,19,2,19,0.00
2013-8-11,94,79,59,50,44,33,70,31,15,29.84,29.73,15,2,18,0.00
2013-8-12,98,81,61,49,43,31,57,27,10,29.82,29.73,14,2,16,0.00
2013-8-13,100,83,62,48,38,22,57,23,8,29.83,29.73,14,2,21,0.00
2013-8-14,102,85,65,47,37,24,42,19,7,29.80,29.69,11,1,13,0.00
2013-8-15,101,83,66,46,38,28,43,21,10,29.81,29.72,21,2,21,0.00
2013-8-16,97,85,72,54,46,39,41,26,19,29.81,29.72,23,3,23,0.00
2013-8-17,99,87,75,48,41,30,35,21,9,29.80,29.66,13,2,18,0.00
2013-8-18,102,83,64,64,48,37,61,31,15,29.81,29.65,14,1,18,0.01
2013-8-19,97,83,70,63,57,43,69,43,23,29.84,29.69,13,2,18,0.00
2013-8-20,96,82,68,55,46,36,59,31,14,29.77,29.70,18,2,18,0.00
2013-8-21,98,84,68,49,42,35,50,24,13,29.80,29.70,19,2,20,0.00
2013-8-22,98,85,72,48,39,30,30,20,12,29.81,29.68,16,2,20,0.00
2013-8-23,96,81,63,45,35,24,51,22,9,29.74,29.61,15,2,21,0.00
2013-8-24,95,78,59,41,32,19,45,22,7,29.77,29.65,15,2,21,0.00
2013-8-25,94,79,59,48,33,20,56,21,9,29.84,29.74,17,2,20,0.00
2013-8-26,90,77,62,64,52,32,60,43,21,29.89,29.73,14,1,15,0.00
2013-8-27,91,79,68,65,60,57,81,55,36,29.79,29.66,11,1,13,0.00
2013-8-28,96,80,67,60,58,52,72,49,29,29.80,29.70,19,2,19,0.00
2013-8-29,99,85,69,57,52,48,58,33,22,29.86,29.75,12,2,14,0.00
2013-8-30,98,83,70,65,57,47,59,43,28,29.88,29.75,19,3,22,0.00
2013-8-31,91,82,76,66,64,63,67,56,41,29.83,29.73,21,5,24,0.00
2013-9-1,92,81,75,65,62,60,70,54,36,29.79,29.71,15,4,22,0.00
2013-9-2,95,84,73,61,56,50,64,41,25,29.80,29.68,15,2,19,0.00
2013-9-3,96,84,73,58,54,49,57,37,25,29.79,29.70,17,2,21,0.00
2013-9-4,100,84,68,58,53,49,65,37,19,29.84,29.72,14,2,17,0.00
2013-9-5,100,84,70,57,51,46,57,33,18,29.80,29.70,15,2,18,0.00
2013-9-6,99,84,68,52,48,42,55,31,17,29.80,29.67,17,2,19,0.00
2013-9-7,99,84,66,50,43,36,48,26,14,29.79,29.67,12,2,17,0.00
2013-9-8,98,84,68,48,42,38,46,24,13,29.74,29.60,16,1,18,0.00
2013-9-9,96,81,71,56,47,36,53,33,18,29.72,29.57,25,2,25,0.00
2013-9-10,89,80,74,43,40,36,31,24,17,29.74,29.60,20,5,26,0.00
2013-9-11,90,80,75,47,39,31,33,23,19,29.81,29.73,23,4,23,0.00
2013-9-12,94,80,68,48,39,25,42,24,9,29.80,29.70,15,2,19,0.00
2013-9-13,95,80,62,49,45,39,52,31,17,29.74,29.57,13,1,20,0.00
2013-9-14,99,81,62,54,47,39,71,34,14,29.65,29.53,13,1,14,0.00
2013-9-15,98,82,64,52,44,38,60,31,13,29.68,29.59,21,2,25,0.00
2013-9-16,96,79,62,47,40,29,55,26,14,29.74,29.63,14,1,19,0.00
2013-9-17,88,76,62,47,36,19,42,26,8,29.69,29.58,21,3,23,0.00
2013-9-18,87,72,56,50,41,29,72,36,13,29.71,29.62,19,1,20,0.00
2013-9-19,92,74,54,48,39,26,67,34,10,29.78,29.65,12,1,14,0.00
2013-9-20,87,72,58,55,45,37,65,40,21,29.73,29.62,27,3,27,0.00
2013-9-21,76,67,59,53,49,44,69,52,40,29.74,29.66,21,4,25,0.00
2013-9-22,72,61,53,47,41,36,68,49,28,29.86,29.71,23,6,25,0.00
2013-9-23,86,66,48,44,39,34,82,43,17,29.95,29.83,11,1,11,0.00
2013-9-24,88,72,55,43,36,27,57,31,14,29.87,29.72,22,3,25,0.00
2013-9-25,75,66,57,52,42,38,58,43,29,29.72,29.57,28,7,30,0.00
2013-9-26,68,58,52,39,34,26,60,42,21,29.89,29.64,26,8,29,0.00
2013-9-27,73,59,44,37,28,19,72,35,14,30.04,29.88,17,2,19,0.00
2013-9-28,80,62,44,33,28,21,64,33,12,30.09,29.96,8,1,11,0.00
2013-9-29,88,70,50,39,28,17,60,25,8,30.03,29.90,19,2,22,0.00
2013-9-30,85,74,62,40,34,29,40,24,16,29.93,29.76,25,5,26,0.00
2013-10-1,84,70,55,51,40,30,50,35,20,29.82,29.74,16,2,21,0.00
2013-10-2,79,70,62,53,44,34,59,41,30,29.80,29.73,15,3,25,0.00
2013-10-3,75,65,52,39,31,20,43,30,14,29.87,29.71,28,6,29,0.00
2013-10-4,72,60,45,33,19,9,53,23,9,30.14,29.87,24,5,27,0.00
2013-10-5,75,60,42,26,19,12,51,23,9,30.26,30.13,30,4,30,0.00
2013-10-6,81,61,43,28,21,10,51,25,7,30.18,29.99,12,1,14,0.00
2013-10-7,83,65,47,30,24,14,50,24,8,30.00,29.81,18,2,22,0.00
2013-10-8,75,66,55,47,34,26,72,34,19,29.82,29.63,29,6,29,0.00
2013-10-9,55,51,46,48,44,38,90,75,60,29.74,29.55,28,5,28,0.13
2013-10-10,65,54,42,44,40,35,80,60,40,29.95,29.74,15,3,15,0.01
2013-10-11,74,59,43,44,39,35,87,51,26,30.02,29.89,11,1,11,0.00
2013-10-12,76,61,45,42,38,32,75,47,21,29.93,29.79,18,2,18,0.00
2013-10-13,70,59,47,43,37,31,65,44,27,29.99,29.81,21,3,21,0.00
2013-10-14,72,56,40,39,33,28,85,48,20,30.11,29.96,14,2,14,0.00
2013-10-15,73,58,41,34,29,24,73,37,17,30.04,29.94,15,2,15,0.00
2013-10-16,72,56,42,30,25,20,56,33,14,30.16,30.01,15,1,15,0.00
2013-10-17,79,59,41,39,30,26,75,37,15,30.06,29.89,14,1,14,0.00
2013-10-18,79,60,43,34,28,19,68,36,11,30.06,29.95,10,1,10,0.00
2013-10-19,79,60,42,32,26,15,60,31,9,30.09,29.95,6,0,6,0.00
2013-10-20,83,63,46,38,29,17,67,31,9,29.97,29.82,12,1,12,0.00
2013-10-21,81,61,43,35,27,16,64,33,9,29.98,29.87,8,0,8,0.00
2013-10-22,79,56,44,33,26,21,56,35,12,30.02,29.93,6,0,6,0.00
2013-10-23,81,71,56,34,28,21,38,22,12,29.91,29.79,7,1,10,0.00
2013-10-24,83,65,47,45,30,20,56,31,10,29.96,29.84,13,1,18,0.00
2013-10-25,82,64,47,36,31,23,58,32,12,30.06,29.95,7,0,7,0.00
2013-10-26,83,63,46,37,31,23,67,34,11,30.11,29.95,5,0,7,0.00
2013-10-27,81,62,47,48,35,22,76,40,12,29.97,29.64,26,4,31,0.00
2013-10-28,58,52,48,48,42,35,81,68,42,29.86,29.58,31,8,33,0.00
2013-10-29,59,51,46,43,40,38,86,67,48,29.97,29.84,18,4,20,0.04
2013-10-30,63,51,39,39,34,29,85,55,28,30.08,29.96,13,2,16,0.00
2013-10-31,68,51,36,37,32,26,88,53,20,30.19,30.06,12,1,12,0.00
2013-11-1,73,54,38,35,29,26,71,42,18,30.21,30.04,13,1,16,0.00
2013-11-2,76,58,40,34,30,27,70,38,17,30.07,29.83,18,2,21,0.00
2013-11-3,71,61,49,47,36,28,74,42,27,29.83,29.69,19,4,22,0.00
2013-11-4,66,54,41,45,33,26,79,49,25,29.98,29.68,14,1,15,0.00
2013-11-5,62,48,34,30,19,7,77,38,13,30.28,29.98,19,3,21,0.00
2013-11-6,68,49,33,23,17,9,56,31,10,30.38,30.24,13,1,15,0.00
2013-11-7,70,53,38,29,22,16,54,33,15,30.27,30.05,5,0,7,0.00
2013-11-8,76,58,39,29,23,13,55,30,9,30.08,29.91,15,1,17,0.00
2013-11-9,72,56,42,28,24,16,56,32,13,30.06,29.95,7,0,7,0.00
2013-11-10,70,53,40,30,25,19,59,36,15,30.16,30.06,6,0,6,0.00
2013-11-11,74,55,38,32,26,22,65,36,15,30.19,30.08,8,0,8,0.00
2013-11-12,72,56,46,33,27,19,52,35,14,30.24,30.15,7,0,8,0.00
2013-11-13,75,57,41,33,26,19,60,34,12,30.17,30.00,6,0,7,0.00
2013-11-14,76,60,42,34,30,27,67,35,17,30.05,29.70,8,1,10,0.00
2013-11-15,66,59,53,47,40,28,73,50,28,29.71,29.55,26,6,26,0.00
2013-11-16,59,54,51,46,44,39,77,69,58,29.86,29.64,26,7,30,0.00
2013-11-17,63,53,44,44,40,33,84,63,32,30.08,29.85,16,2,18,0.00
2013-11-18,65,52,39,47,41,34,86,68,42,30.14,29.98,17,2,19,0.00
2013-11-19,66,57,50,46,42,38,79,58,37,30.02,29.84,22,4,22,0.00
2013-11-20,63,56,53,49,46,41,81,68,51,29.86,29.75,26,8,27,0.00
2013-11-21,60,52,43,52,47,40,94,86,58,29.94,29.74,12,1,18,0.52
2013-11-22,44,42,41,41,39,37,93,87,79,30.07,29.93,17,4,20,0.16
2013-11-23,47,43,41,42,40,38,97,88,74,30.16,30.05,11,1,11,0.04
2013-11-24,54,45,38,44,39,36,96,82,56,30.24,30.14,10,1,11,0.00
2013-11-25,61,46,34,44,37,32,95,74,39,30.33,30.22,7,0,7,0.00
2013-11-26,62,48,37,42,38,34,92,71,42,30.30,30.14,10,1,11,0.00
2013-11-27,59,49,41,42,39,35,88,70,48,30.14,29.92,10,1,10,0.00
2013-11-28,58,47,38,41,38,34,87,70,46,30.10,29.94,6,0,7,0.00
2013-11-29,54,48,42,44,40,36,86,76,59,30.23,30.09,6,0,6,0.02
2013-11-30,63,49,39,42,38,34,94,68,35,30.27,30.16,6,0,8,0.00
2013-12-1,64,48,35,38,34,31,87,62,31,30.35,30.21,10,1,11,0.00
2013-12-2,74,54,36,41,29,19,82,46,15,30.24,29.86,21,1,21,0.00
2013-12-3,64,55,41,47,34,25,86,50,27,29.87,29.59,38,8,38,0.03
2013-12-4,48,40,32,30,22,14,70,50,26,30.00,29.73,25,4,31,0.00
2013-12-5,47,35,26,23,18,13,76,52,27,30.14,29.98,7,0,8,0.00
2013-12-6,50,38,24,35,26,18,80,65,40,30.19,30.06,21,4,25,0.00
2013-12-7,44,40,35,39,30,20,91,69,55,30.11,29.92,32,10,35,0.01
2013-12-8,42,34,24,21,17,13,73,53,32,30.31,30.10,12,1,15,0.00
2013-12-9,43,30,20,16,7,-3,77,43,15,30.54,30.31,21,3,24,0.00
2013-12-10,46,30,19,11,6,1,59,38,17,30.53,30.28,3,0,6,0.00
2013-12-11,52,35,22,16,12,8,63,41,18,30.41,30.31,4,0,5,0.00
2013-12-12,57,41,27,20,16,14,63,40,19,30.36,30.17,5,0,7,0.00
2013-12-13,63,49,35,22,17,12,50,30,14,30.31,30.13,12,1,17,0.00
2013-12-14,60,44,30,24,20,17,64,41,20,30.47,30.30,20,2,20,0.00
2013-12-15,62,45,31,25,22,20,67,43,20,30.45,30.29,8,0,8,0.00
2013-12-16,64,48,34,28,24,19,64,41,19,30.35,30.23,4,0,4,0.00
2013-12-17,67,50,36,29,26,22,66,42,18,30.31,30.09,4,0,4,0.00
2013-12-18,63,54,47,44,31,23,74,44,23,30.10,29.68,24,2,30,0.00
2013-12-19,50,47,37,42,39,33,86,75,65,29.82,29.59,35,6,35,0.02
2013-12-20,53,41,32,37,28,21,92,63,30,29.98,29.81,10,1,10,0.00
2013-12-21,65,48,33,38,30,22,73,54,32,30.07,29.88,8,1,12,0.00
2013-12-22,59,44,32,35,32,28,88,63,37,30.35,30.07,5,0,7,0.00
2013-12-23,62,46,33,33,30,27,83,59,31,30.46,30.34,12,1,13,0.00
2013-12-24,64,46,33,34,31,28,84,59,30,30.37,30.23,5,0,6,0.00
2013-12-25,63,46,33,33,25,18,81,49,19,30.42,30.29,17,2,18,0.00
2013-12-26,62,44,29,25,19,14,70,42,16,30.38,30.25,6,0,7,0.00
2013-12-27,63,46,30,20,16,10,62,34,12,30.34,30.13,4,0,4,0.00
2013-12-28,73,50,37,23,15,-7,45,28,4,30.13,29.93,19,1,21,0.00
2013-12-29,61,45,32,18,13,5,49,30,11,30.28,30.07,22,2,22,0.00
2013-12-30,61,43,28,18,14,7,56,33,12,30.36,30.24,4,0,4,0.00
2013-12-31,63,45,31,20,16,12,52,34,15,30.29,30.13,4,0,5,0.00
2014-1-1,64,46,30,23,18,13,58,36,15,30.29,30.17,4,0,5,0.00
2014-1-2,64,47,33,28,24,21,62,42,22,30.25,30.10,5,0,6,0.00